When you browse on this site, cookies collect data to enhance your experience and personalize the content and advertising you see.
Visit our Privacy Policy to learn more. By continuing to use the site, you agree to this use of cookies and data.

Meteo orario Artemivsk

Oggi, 25 Settembre, Venerdi

Tempo Temperatura Precipitazioni Vento Pressione Umidità
00:00 +17°C° 0 mm 3 m/s 751 mm Hg 40%
01:00 +17°C° 0 mm 3 m/s 751 mm Hg 41%
02:00 +16°C° 0 mm 3 m/s 751 mm Hg 42%
03:00 +16°C° 0 mm 3 m/s 751 mm Hg 43%
04:00 +14°C° 0 mm 3 m/s 751 mm Hg 46%
05:00 +14°C° 0 mm 3 m/s 751 mm Hg 48%
06:00 +13°C° 0 mm 3 m/s 751 mm Hg 51%
07:00 +17°C° 0 mm 4 m/s 751 mm Hg 47%
08:00 +19°C° 0 mm 4 m/s 751 mm Hg 44%
09:00 +21°C° 0 mm 5 m/s 751 mm Hg 40%
10:00 +22°C° 0 mm 5 m/s 751 mm Hg 37%
11:00 +25°C° 0 mm 5 m/s 751 mm Hg 34%
12:00 +27°C° 0 mm 5 m/s 751 mm Hg 31%
13:00 +27°C° 0 mm 5 m/s 750 mm Hg 30%
14:00 +28°C° 0 mm 5 m/s 750 mm Hg 29%
15:00 +28°C° 0 mm 4 m/s 750 mm Hg 28%
16:00 +27°C° 0 mm 4 m/s 750 mm Hg 32%
17:00 +26°C° 0 mm 3 m/s 749 mm Hg 35%
18:00 +24°C° 0 mm 3 m/s 749 mm Hg 38%
19:00 +22°C° 0 mm 3 m/s 749 mm Hg 39%
20:00 +22°C° 0 mm 4 m/s 749 mm Hg 40%
21:00 +21°C° 0 mm 5 m/s 749 mm Hg 41%
22:00 +20°C° 0 mm 4 m/s 749 mm Hg 42%
23:00 +19°C° 0 mm 4 m/s 749 mm Hg 42%

Domani, 26 Settembre, Sabato

Tempo Temperatura Precipitazioni Vento Pressione Umidità
00:00 +19°C° 0 mm 4 m/s 749 mm Hg 43%
01:00 +18°C° 0 mm 4 m/s 749 mm Hg 43%
02:00 +18°C° 0 mm 4 m/s 749 mm Hg 44%
03:00 +18°C° 0 mm 4 m/s 749 mm Hg 45%
04:00 +17°C° 0 mm 4 m/s 749 mm Hg 47%
05:00 +15°C° 0 mm 4 m/s 749 mm Hg 49%
06:00 +15°C° 0 mm 4 m/s 749 mm Hg 51%
07:00 +17°C° 0 mm 5 m/s 749 mm Hg 45%
08:00 +19°C° 0 mm 6 m/s 749 mm Hg 40%
09:00 +21°C° 0 mm 6 m/s 749 mm Hg 34%
10:00 +23°C° 0 mm 7 m/s 749 mm Hg 29%
11:00 +27°C° 0 mm 7 m/s 749 mm Hg 23%
12:00 +29°C° 0 mm 8 m/s 748 mm Hg 17%
13:00 +29°C° 0 mm 8 m/s 748 mm Hg 17%
14:00 +31°C° 0 mm 8 m/s 748 mm Hg 17%
15:00 +31°C° 0 mm 8 m/s 748 mm Hg 16%
16:00 +29°C° 0 mm 7 m/s 748 mm Hg 18%
17:00 +28°C° 0 mm 6 m/s 748 mm Hg 19%
18:00 +27°C° 0 mm 5 m/s 747 mm Hg 21%
19:00 +25°C° 0 mm 5 m/s 748 mm Hg 25%
20:00 +23°C° 0 mm 5 m/s 748 mm Hg 28%
21:00 +22°C° 0 mm 6 m/s 748 mm Hg 32%
22:00 +22°C° 0 mm 6 m/s 749 mm Hg 33%
23:00 +21°C° 0 mm 6 m/s 749 mm Hg 35%

Dopodomani, 27 Settembre, Domenica

Tempo Temperatura Precipitazioni Vento Pressione Umidità
00:00 +21°C° 0 mm 7 m/s 749 mm Hg 36%
01:00 +20°C° 0 mm 7 m/s 749 mm Hg 37%
02:00 +20°C° 0 mm 6 m/s 749 mm Hg 38%
03:00 +19°C° 0 mm 6 m/s 749 mm Hg 39%
04:00 +17°C° 0 mm 7 m/s 749 mm Hg 41%
05:00 +16°C° 0 mm 7 m/s 750 mm Hg 43%
06:00 +16°C° 0 mm 7 m/s 750 mm Hg 45%
07:00 +17°C° 0 mm 7 m/s 750 mm Hg 44%
08:00 +17°C° 0 mm 8 m/s 750 mm Hg 43%
09:00 +18°C° 0 mm 8 m/s 750 mm Hg 42%
10:00 +21°C° 0 mm 8 m/s 750 mm Hg 39%
11:00 +23°C° 0 mm 8 m/s 750 mm Hg 36%
12:00 +26°C° 0 mm 8 m/s 750 mm Hg 33%
13:00 +27°C° 0 mm 8 m/s 750 mm Hg 31%
14:00 +28°C° 0 mm 8 m/s 750 mm Hg 29%
15:00 +29°C° 0 mm 8 m/s 750 mm Hg 27%
16:00 +28°C° 0 mm 7 m/s 750 mm Hg 29%
17:00 +28°C° 0 mm 6 m/s 750 mm Hg 30%
18:00 +27°C° 0 mm 5 m/s 750 mm Hg 32%
19:00 +26°C° 0.1 mm 6 m/s 750 mm Hg 34%
20:00 +24°C° 0.1 mm 6 m/s 751 mm Hg 36%
21:00 +23°C° 0.1 mm 7 m/s 751 mm Hg 38%
22:00 +22°C° 0.3 mm 6 m/s 751 mm Hg 42%
23:00 +21°C° 0.3 mm 6 m/s 751 mm Hg 45%

28 Settembre, Lunedi

Tempo Temperatura Precipitazioni Vento Pressione Umidità
00:00 +20°C° 0.3 mm 6 m/s 751 mm Hg 48%
01:00 +20°C° 0.4 mm 6 m/s 751 mm Hg 51%
02:00 +19°C° 0.4 mm 6 m/s 751 mm Hg 54%
03:00 +17°C° 0.4 mm 6 m/s 751 mm Hg 56%
04:00 +17°C° 0 mm 6 m/s 752 mm Hg 58%
05:00 +17°C° 0 mm 6 m/s 752 mm Hg 60%
06:00 +16°C° 0 mm 6 m/s 752 mm Hg 61%
07:00 +17°C° 0 mm 6 m/s 752 mm Hg 59%
08:00 +17°C° 0 mm 6 m/s 752 mm Hg 57%
09:00 +19°C° 0 mm 6 m/s 752 mm Hg 55%
10:00 +20°C° 0.2 mm 6 m/s 752 mm Hg 52%
11:00 +22°C° 0.2 mm 5 m/s 753 mm Hg 50%
12:00 +23°C° 0.2 mm 5 m/s 753 mm Hg 47%
13:00 +23°C° 0.1 mm 5 m/s 753 mm Hg 45%
14:00 +25°C° 0.1 mm 4 m/s 753 mm Hg 44%
15:00 +25°C° 0.1 mm 4 m/s 752 mm Hg 43%
16:00 +25°C° 0.1 mm 3 m/s 752 mm Hg 45%
17:00 +24°C° 0.1 mm 3 m/s 752 mm Hg 47%
18:00 +23°C° 0.1 mm 2 m/s 752 mm Hg 50%
19:00 +23°C° 0 mm 2 m/s 752 mm Hg 50%
20:00 +21°C° 0 mm 2 m/s 752 mm Hg 51%
21:00 +20°C° 0 mm 3 m/s 753 mm Hg 52%
22:00 +20°C° 0 mm 3 m/s 752 mm Hg 50%
23:00 +20°C° 0 mm 3 m/s 752 mm Hg 47%

29 Settembre, Martedi

Tempo Temperatura Precipitazioni Vento Pressione Umidità
00:00 +20°C° 0 mm 3 m/s 752 mm Hg 45%
01:00 +20°C° 0 mm 4 m/s 752 mm Hg 46%
02:00 +20°C° 0 mm 4 m/s 752 mm Hg 47%
03:00 +20°C° 0 mm 4 m/s 752 mm Hg 48%
04:00 +19°C° 0 mm 4 m/s 752 mm Hg 52%
05:00 +17°C° 0 mm 5 m/s 752 mm Hg 57%
06:00 +17°C° 0 mm 5 m/s 752 mm Hg 61%
07:00 +17°C° 0 mm 5 m/s 752 mm Hg 62%
08:00 +17°C° 0 mm 5 m/s 752 mm Hg 62%
09:00 +17°C° 0 mm 6 m/s 752 mm Hg 63%
10:00 +20°C° 0 mm 6 m/s 751 mm Hg 57%
11:00 +21°C° 0 mm 6 m/s 751 mm Hg 51%
12:00 +23°C° 0 mm 6 m/s 751 mm Hg 45%
13:00 +23°C° 0 mm 7 m/s 750 mm Hg 44%
14:00 +23°C° 0 mm 7 m/s 750 mm Hg 42%
15:00 +23°C° 0 mm 7 m/s 749 mm Hg 41%
16:00 +23°C° 0.2 mm 6 m/s 749 mm Hg 42%
17:00 +23°C° 0.2 mm 6 m/s 749 mm Hg 43%
18:00 +22°C° 0.2 mm 5 m/s 748 mm Hg 44%
19:00 +22°C° 0.2 mm 6 m/s 748 mm Hg 44%
20:00 +22°C° 0.2 mm 6 m/s 748 mm Hg 43%
21:00 +21°C° 0.2 mm 7 m/s 747 mm Hg 43%
22:00 +21°C° 0 mm 7 m/s 747 mm Hg 43%
23:00 +21°C° 0 mm 7 m/s 747 mm Hg 43%

30 Settembre, Mercoledi

Tempo Temperatura Precipitazioni Vento Pressione Umidità
00:00 +20°C° 0 mm 7 m/s 746 mm Hg 42%
01:00 +18°C° 0.4 mm 7 m/s 746 mm Hg 48%
02:00 +17°C° 0.4 mm 8 m/s 746 mm Hg 53%
03:00 +16°C° 0.4 mm 8 m/s 745 mm Hg 59%
04:00 +15°C° 0.7 mm 8 m/s 745 mm Hg 58%
05:00 +15°C° 0.7 mm 8 m/s 745 mm Hg 58%
06:00 +15°C° 0.7 mm 8 m/s 745 mm Hg 58%
07:00 +15°C° 0.2 mm 9 m/s 745 mm Hg 61%
08:00 +15°C° 0.2 mm 9 m/s 745 mm Hg 64%
09:00 +15°C° 0.2 mm 9 m/s 745 mm Hg 68%
10:00 +15°C° 1.7 mm 9 m/s 745 mm Hg 71%
11:00 +15°C° 1.7 mm 9 m/s 744 mm Hg 74%
12:00 +15°C° 1.7 mm 9 m/s 744 mm Hg 78%
13:00 +15°C° 0.3 mm 9 m/s 744 mm Hg 77%
14:00 +16°C° 0.3 mm 9 m/s 744 mm Hg 76%
15:00 +16°C° 0.3 mm 9 m/s 744 mm Hg 76%
16:00 +16°C° 0 mm 9 m/s 744 mm Hg 74%
17:00 +17°C° 0 mm 8 m/s 744 mm Hg 72%
18:00 +17°C° 0 mm 8 m/s 744 mm Hg 70%
19:00 +17°C° 0.1 mm 7 m/s 744 mm Hg 69%
20:00 +17°C° 0.1 mm 7 m/s 744 mm Hg 69%
21:00 +17°C° 0.1 mm 6 m/s 745 mm Hg 68%
22:00 +17°C° 0.2 mm 7 m/s 745 mm Hg 72%
23:00 +16°C° 0.2 mm 8 m/s 745 mm Hg 76%
Mostrare altro